DECAYED

STARLINK-3815, 52338 (Decayed)

Orbit data source: Space-Track

STARLINK-3815, 52338 was a payload satellite owned by SpaceX/Seattle (US) in LEO that was launched on Fri, 29 Apr 2022 UTC via an FALCON 9 launch vehicle from the Air Force Eastern Test Range (AFETR). Payload-class satellites include a variety of spacecraft equipped with specific instruments for various scientific and technological missions. These include communications satellites like Starlink; space stations such as the ISS; scientific satellites like the Hubble; Earth observation satellites from companies like Planet Labs, Umbra, and HawkEye 360; GPS; miniature CubeSats for education and research; and military/defense satellites.

Not visible in the next 10 days
Identifier
52338, 2022-045H
Orbit
Decayed
Last TLE update
4 months ago
Origin
Manufacturer
SpaceX/Seattle
Mission
Decayed Commercial Communications
Bus & Motor
STARLINK, Unknown motor
Mass
297 kg wet, ~275 kg dry
Launch date (UTC)
2022-04-29 (3 years ago)
Launch vehicle
FALCON 9
Launch site
Air Force Eastern Test Range (AFETR)
Object type
Payload
Rocket body
Debris
Shape & HBR
Box + 1 Pan, 4.5 m
Radar Cross Section
11.087 m², Large (>1 m²)

Expand to show TLE details & history

TLE from 4 months ago
0 STARLINK-3815
1 52338U 22045H   25078.19142481  .08475675  11995-4  19122-2 0  9994
2 52338  53.1874 288.9729 0010815 246.5343 219.5043 16.29240604163040
Epoch: 2025-03-19T04:35Z
TLE epoch observation values (Epoch: 2025-03-19T04:35:39.103Z)
Latitude
50.48567°
Longitude
158.61876°
Altitude
205.96 km
Speed
7.786 km/s
True Right ascension
02h 58m 03s
True Declination
50° 18' 09"
Sunlit
Object was in daylight at epoch
Visualization orbit readout
Visualization observer readout
Orbital elements
Apogee altitude
201.952 km
Perigee altitude
187.735 km
Semi-major axis
6,572.981 km
Eccentricity
0.00108
Inclination
53.1874°
RAAN
288.9729°
Arg. of periapsis
246.5343°
True anomaly
219.42555°
Mean anomaly
219.5043°
Eccentric anomaly
219.46491°
Mean motion
4.07286 °/min
Orbital period
88.39 mins
BSTAR
0.0019122
Loading maneuver chart data...
Loading SW <> Apogee altitude chart data...
Loading historical data...
Loading historical data...
Loading historical data...
Loading historical data...
Loading historical data...
Loading historical data...
Loading historical data...
|